Weather History for Gadsden, AL

Change the Weather History Date:

Thursday, October 27, 2011

  Actual Average Record
Temperature  
Mean Temperature 58 °F -  
Max Temperature 75 °F 70 °F 89 °F (1940)
Min Temperature 41 °F 44 °F 29 °F (1942)
Degree Days  
Heating Degree Days 7    
Growing Degree Days 8 (Base 50)    
Moisture  
Dew Point 49 °F    
Average Humidity 74    
Maximum Humidity 93    
Minimum Humidity 50    
Precipitation  
Precipitation 0.00 in - - ()
Sea Level Pressure  
Sea Level Pressure 29.93 in    
Wind  
Wind Speed 3 mph (West)    
Max Wind Speed 14 mph    
Max Gust Speed 17 mph    
Visibility 10 miles    
Events      
Averages and records for this station are not official NWS values.
T = Trace of Precipitation, MM = Missing Value Source: NWS Daily Summary

Daily Weather History Graph

Daily Weather History Graph

Search for Another Location

Airport:

Trip Planner

Search our weather history database for the weather conditions in past years. The results will help you decide how hot, cold, wet, or windy it might be!

Date:

Astronomy

Oct. 27, 2011 Rise Set
Actual Time 6:59 AM CDT 5:56 PM CDT
Civil Twilight 6:33 AM CDT 6:22 PM CDT
Nautical Twilight 6:04 AM CDT 6:51 PM CDT
Astronomical Twilight 5:35 AM CDT 7:20 PM CDT
Moon 7:56 AM CDT (10/27) 6:31 PM CDT (10/27)
Length of Visible Light 11h 48m
Length of Day
10h 57m
New Moon, 1% of the Moon is Illuminated
Oct 27
New Moon
Nov 2
First Quarter
Nov 10
Full
Nov 18
Last Quarter
Nov 25
New

Hourly Weather History & Observations

Time (CDT) Temp. Windchill Dew Point Humidity Pressure Visibility Wind Dir Wind Speed Gust Speed Precip Events Conditions
12:15 AM 48.2 °F - 44.6 °F 87% 29.98 in 10.0 mi Calm Calm - N/A   Clear
12:35 AM 46.4 °F - 42.8 °F 87% 29.97 in 10.0 mi Calm Calm - N/A   Clear
1:15 AM 46.4 °F - 42.8 °F 87% 29.96 in 10.0 mi Calm Calm - N/A   Clear
1:35 AM 46.4 °F - 42.8 °F 87% 29.96 in 10.0 mi Calm Calm - N/A   Clear
1:55 AM 46.4 °F 45.2 °F 42.8 °F 87% 29.96 in 10.0 mi WSW 3.5 mph - N/A   Clear
2:15 AM 44.6 °F - 41.0 °F 87% 29.95 in 10.0 mi Calm Calm - N/A   Clear
2:35 AM 44.6 °F - 42.8 °F 93% 29.95 in 10.0 mi Calm Calm - N/A   Clear
3:15 AM 44.6 °F - 41.0 °F 87% 29.95 in 10.0 mi Calm Calm - N/A   Clear
3:35 AM 44.6 °F - 41.0 °F 87% 29.95 in 10.0 mi Calm Calm - N/A   Clear
3:55 AM 44.6 °F - 41.0 °F 87% 29.95 in 10.0 mi Calm Calm - N/A   Clear
4:15 AM 44.6 °F - 39.2 °F 81% 29.95 in 10.0 mi Calm Calm - N/A   Clear
4:35 AM 42.8 °F - 39.2 °F 87% 29.95 in 10.0 mi Calm Calm - N/A   Clear
4:55 AM 42.8 °F - 39.2 °F 87% 29.95 in 10.0 mi Calm Calm - N/A   Clear
5:35 AM 42.8 °F - 37.4 °F 81% 29.94 in 10.0 mi Calm Calm - N/A   Clear
5:55 AM 42.8 °F - 39.2 °F 87% 29.94 in 10.0 mi Calm Calm - N/A   Clear
6:15 AM 42.8 °F - 39.2 °F 87% 29.94 in 10.0 mi Calm Calm - N/A   Clear
6:35 AM 41.0 °F - 37.4 °F 87% 29.94 in 10.0 mi Calm Calm - N/A   Clear
6:55 AM 42.8 °F - 37.4 °F 81% 29.94 in 9.0 mi Calm Calm - N/A   Clear
7:15 AM 41.0 °F - 37.4 °F 87% 29.94 in 8.0 mi Calm Calm - N/A   Clear
7:35 AM 42.8 °F - 39.2 °F 87% 29.94 in 10.0 mi Calm Calm - N/A   Clear
7:55 AM 46.4 °F - 42.8 °F 87% 29.95 in 10.0 mi Calm Calm - N/A   Clear
8:15 AM 48.2 °F - 44.6 °F 87% 29.95 in 10.0 mi Calm Calm - N/A   Clear
8:35 AM 50.0 °F - 46.4 °F 87% 29.95 in 10.0 mi Calm Calm - N/A   Partly Cloudy
8:55 AM 51.8 °F - 46.4 °F 82% 29.96 in 10.0 mi Calm Calm - N/A   Partly Cloudy
9:15 AM 53.6 °F - 48.2 °F 82% 29.96 in 10.0 mi Calm Calm - N/A   Scattered Clouds
9:35 AM 55.4 °F - 50.0 °F 82% 29.96 in 10.0 mi Calm Calm - N/A   Overcast
9:55 AM 57.2 °F - 51.8 °F 82% 29.95 in 10.0 mi Calm Calm - N/A   Overcast
10:15 AM 62.6 °F - 53.6 °F 72% 29.95 in 10.0 mi South 3.5 mph - N/A   Overcast
10:35 AM 64.4 °F - 53.6 °F 68% 29.95 in 10.0 mi SSW 4.6 mph - N/A   Scattered Clouds
10:55 AM 66.2 °F - 55.4 °F 68% 29.94 in 10.0 mi SSW 5.8 mph - N/A   Partly Cloudy
11:15 AM 68.0 °F - 55.4 °F 64% 29.93 in 10.0 mi SSW 6.9 mph - N/A   Mostly Cloudy
11:35 AM 71.6 °F - 57.2 °F 60% 29.93 in 10.0 mi WSW 8.1 mph - N/A   Scattered Clouds
11:55 AM 71.6 °F - 55.4 °F 57% 29.93 in 10.0 mi SW 8.1 mph - N/A   Partly Cloudy
12:15 PM 73.4 °F - 55.4 °F 53% 29.92 in 10.0 mi SSW 4.6 mph - N/A   Scattered Clouds
12:35 PM 71.6 °F - 55.4 °F 57% 29.91 in 10.0 mi West 8.1 mph - N/A   Overcast
12:55 PM 71.6 °F - 55.4 °F 57% 29.90 in 10.0 mi WSW 10.4 mph - N/A   Overcast
1:15 PM 73.4 °F - 57.2 °F 57% 29.90 in 10.0 mi WSW 11.5 mph - N/A   Overcast
1:35 PM 73.4 °F - 57.2 °F 57% 29.89 in 10.0 mi West 8.1 mph - N/A   Overcast
1:55 PM 73.4 °F - 55.4 °F 53% 29.89 in 10.0 mi West 13.8 mph - N/A   Overcast
2:35 PM 75.2 °F - 57.2 °F 53% 29.88 in 10.0 mi WSW 11.5 mph - N/A   Mostly Cloudy
2:55 PM 75.2 °F - 57.2 °F 53% 29.88 in 10.0 mi WSW 13.8 mph - N/A   Mostly Cloudy
3:15 PM 75.2 °F - 57.2 °F 53% 29.88 in 10.0 mi West 10.4 mph 17.3 mph N/A   Mostly Cloudy
3:35 PM 75.2 °F - 57.2 °F 53% 29.87 in 10.0 mi WSW 5.8 mph - N/A   Scattered Clouds
3:55 PM 75.2 °F - 55.4 °F 50% 29.87 in 10.0 mi WSW 8.1 mph - N/A   Scattered Clouds
4:15 PM 73.4 °F - 55.4 °F 53% 29.88 in 10.0 mi West 9.2 mph - N/A   Mostly Cloudy
4:35 PM 73.4 °F - 55.4 °F 53% 29.88 in 10.0 mi West 6.9 mph - N/A   Overcast
4:55 PM 71.6 °F - 55.4 °F 57% 29.88 in 10.0 mi West 9.2 mph - N/A   Overcast
5:15 PM 69.8 °F - 57.2 °F 64% 29.90 in 10.0 mi NNW 10.4 mph - N/A   Overcast
5:35 PM 66.2 °F - 57.2 °F 73% 29.90 in 10.0 mi NNW 6.9 mph - N/A   Mostly Cloudy
5:55 PM 66.2 °F - 55.4 °F 68% 29.90 in 10.0 mi NNW 8.1 mph - N/A   Scattered Clouds
6:15 PM 64.4 °F - 55.4 °F 73% 29.92 in 10.0 mi NNW 8.1 mph - N/A   Partly Cloudy
6:35 PM 64.4 °F - 55.4 °F 73% 29.93 in 10.0 mi NW 4.6 mph - N/A   Scattered Clouds
6:55 PM 62.6 °F - 55.4 °F 77% 29.93 in 10.0 mi NNW 8.1 mph - N/A   Mostly Cloudy
7:15 PM 60.8 °F - 53.6 °F 77% 29.95 in 10.0 mi North 8.1 mph - N/A   Partly Cloudy
7:35 PM 60.8 °F - 51.8 °F 72% 29.95 in 10.0 mi NNW 8.1 mph 17.3 mph N/A   Scattered Clouds
8:15 PM 57.2 °F - 51.8 °F 82% 29.97 in 10.0 mi NNW 8.1 mph - N/A   Partly Cloudy
8:35 PM 57.2 °F - 51.8 °F 82% 29.98 in 10.0 mi NNW 6.9 mph - N/A   Partly Cloudy
8:55 PM 57.2 °F - 50.0 °F 77% 29.98 in 10.0 mi NNW 6.9 mph - N/A   Scattered Clouds
9:15 PM 57.2 °F - 50.0 °F 77% 29.98 in 10.0 mi North 6.9 mph - N/A   Mostly Cloudy
9:35 PM 57.2 °F - 50.0 °F 77% 29.98 in 10.0 mi NNE 11.5 mph - N/A   Overcast
9:55 PM 55.4 °F - 48.2 °F 77% 29.98 in 10.0 mi North 8.1 mph - N/A   Mostly Cloudy
10:15 PM 55.4 °F - 48.2 °F 77% 29.98 in 10.0 mi North 5.8 mph - N/A   Mostly Cloudy
10:35 PM 55.4 °F - 48.2 °F 77% 29.99 in 10.0 mi NNE 10.4 mph - N/A   Mostly Cloudy
10:55 PM 55.4 °F - 48.2 °F 77% 29.99 in 10.0 mi North 10.4 mph - N/A   Overcast
11:15 PM 55.4 °F - 48.2 °F 77% 29.99 in 10.0 mi NNE 10.4 mph - N/A   Overcast
11:35 PM 55.4 °F - 48.2 °F 77% 29.99 in 10.0 mi NNE 9.2 mph - N/A   Overcast
11:55 PM 55.4 °F - 48.2 °F 77% 29.98 in 10.0 mi North 11.5 mph - N/A   Overcast